Probability
0 0 3 3 3 3 0 0 0 0 0 0 0 0 0 0 0 0 0 0 0 0 0 0 0 0 0 0 0 0 0 0 0 0 0 0 0 0 0 0 0 0 0
3 3 3 3 3 3 0 0 0 0 0 0 0 0 0 0 0 0 0 0 0 0 0 0 0 0 0 0 0 0 0 0 0 0 0 0 0 0 0 0 0 0 0
3 3 3 3 0 0 0 0 0 0 0 0 0 0 0 0 0 0 0 0 0 0 0 0 0 0 0 0 0 0 0 0 0 0 0 0 0 0 0 0 0 0 0
0 3 3 0 0 0 0 0 0 0 0 0 0 0 0 0 0 0 0 0 0 0 0 0 0 0 0 0 0 0 0 0 0 0 0 0 0 0 0 0 0 0 0
0 3 3 0 0 0 0 0 0 0 0 0 0 0 0 0 0 0 0 0 0 0 0 0 0 0 0 0 0 0 0 0 0 0 0 0 0 0 0 0 0 0 0
3 3 0 0 0 0 0 0 0 0 0 0 0 0 0 0 0 0 0 0 0 0 0 0 0 0 0 0 0 0 0 0 0 0 0 0 0 0 0 0 0 0 0
3 3 0 0 0 0 0 0 0 0 0 0 0 0 0 0 0 0 0 0 0 0 0 0 0 0 0 0 0 0 0 0 0 0 0 0 0 0 0 0 0 0 0
0 0 0 0 0 0 0 0 0 0 0 0 0 0 0 0 0 0 0 0 0 0 0 0 0 0 0 0 0 0 0 0 0 0 0 0 0 0 0 0 0 0 0
0 0 0 0 0 0 0 0 0 0 0 0 0 0 0 0 0 0 0 0 0 0 0 0 0 0 0 0 0 0 0 0 0 0 0 0 0 0 0 0 0 0 0
0 0 0 0 0 0 0 0 0 0 0 0 0 0 0 0 0 0 0 0 0 0 0 0 0 0 0 0 0 0 0 0 0 0 0 0 0 0 0 0 0 0 0
0 0 0 0 0 0 0 0 0 0 0 0 0 0 0 0 0 0 0 0 0 0 0 0 0 0 0 0 0 0 0 0 0 0 0 0 0 0 0 0 0 0 0
0 0 0 0 0 0 0 0 0 0 0 0 0 0 0 0 0 0 0 0 0 0 0 0 0 0 0 0 0 0 0 0 0 0 0 0 0 0 0 0 0 0 0
0 0 0 0 0 0 0 0 0 0 0 0 0 0 0 0 0 0 0 0 0 0 0 0 0 0 0 0 0 0 0 0 0 0 0 0 0 0 0 0 0 0 0
0 0 0 0 0 0 0 0 0 0 0 0 0 0 0 0 0 0 0 0 0 0 0 0 0 0 0 0 0 0 0 0 0 0 0 0 0 0 0 0 0 0 0
0 0 0 0 0 0 0 0 0 0 0 0 0 0 0 0 0 0 0 0 0 0 0 0 0 0 0 0 0 0 0 0 0 0 0 0 0 0 0 0 0 0 0
0 0 0 0 0 0 0 0 0 0 0 0 0 0 0 0 0 0 0 0 0 0 0 0 0 0 0 0 0 0 0 0 0 0 0 0 0 0 0 0 0 0 0
0 0 0 0 0 0 0 0 0 0 0 0 0 0 0 0 0 0 0 0 0 0 0 0 0 0 0 0 0 0 0 0 0 0 0 0 0 0 0 0 0 0 0
0 0 0 0 0 0 0 0 0 0 0 0 0 0 0 0 0 0 0 0 0 0 0 0 0 0 0 0 0 0 0 0 0 0 0 0 0 0 0 0 0 0 0
0 0 0 0 0 0 0 0 0 0 0 0 0 0 0 0 0 0 0 0 0 0 0 0 0 0 0 0 0 0 0 0 0 0 0 0 0 0 0 0 0 0 0
0 0 0 0 0 0 0 0 0 0 0 0 0 0 0 0 0 0 0 0 0 0 0 0 0 0 0 0 0 0 0 0 0 0 0 0 0 0 0 0 0 0 0
0 0 0 0 0 0 0 0 0 0 0 0 0 0 0 0 0 0 0 0 0 0 0 0 0 0 0 0 0 0 0 0 0 0 0 0 0 0 0 0 0 0 0
0 0 0 0 0 0 0 0 0 0 0 0 0 0 0 0 0 0 0 0 0 0 0 0 0 0 0 0 0 0 0 0 0 0 0 0 0 0 0 0 0 0 0
0 0 0 0 0 0 0 0 0 0 0 0 0 0 0 0 0 0 0 0 0 0 0 0 0 0 0 0 0 0 0 0 0 0 0 0 0 0 0 0 0 0 0
0 0 0 0 0 0 0 0 0 0 0 0 0 0 0 0 0 0 0 0 0 0 0 0 0 0 0 0 0 0 0 0 0 0 0 0 0 0 0 0 0 0 0
0 0 0 0 0 0 0 0 0 0 0 0 0 0 0 0 0 0 0 0 0 0 0 0 0 0 0 0 0 0 0 0 0 0 0 0 0 0 0 0 0 0 0
0 0 0 0 0 0 0 0 0 0 0 0 0 0 0 0 0 0 0 0 0 0 0 0 0 0 0 0 0 0 0 0 0 0 0 0 0 0 0 0 0 0 0
Height
5853 5851 5850 5848 5846 5844 5841 5839 5836 5832 5829 5825 5821 5817 5812 5808 5803 5799 5794 5790 5786 5782 5778 5775 5772 5769 5767 5765 5764 5764 5764 5765 5766 5767 5767 5768 5770 5772 5775 5778 5781 5784 5788
5850 5849 5847 5845 5843 5841 5838 5835 5832 5828 5824 5820 5816 5811 5806 5801 5796 5791 5787 5782 5777 5773 5769 5765 5762 5759 5756 5754 5753 5752 5751 5751 5753 5755 5755 5756 5758 5760 5763 5766 5770 5773 5777
5848 5846 5844 5842 5840 5837 5834 5831 5827 5823 5819 5815 5810 5805 5800 5795 5789 5784 5778 5773 5768 5763 5759 5755 5751 5748 5745 5743 5741 5740 5739 5739 5739 5741 5742 5743 5745 5747 5750 5754 5757 5761 5765
5845 5843 5840 5838 5835 5832 5829 5825 5822 5818 5813 5809 5804 5799 5793 5788 5782 5776 5770 5765 5759 5754 5749 5745 5741 5737 5735 5732 5730 5728 5727 5727 5727 5728 5729 5730 5732 5734 5737 5741 5745 5749 5753
5840 5838 5836 5833 5830 5827 5824 5820 5816 5812 5807 5802 5797 5792 5786 5780 5774 5768 5762 5756 5750 5744 5739 5735 5731 5727 5724 5722 5720 5718 5716 5715 5715 5715 5716 5717 5719 5721 5724 5727 5731 5736 5740
5835 5833 5831 5828 5825 5822 5818 5814 5810 5805 5800 5795 5790 5784 5778 5772 5766 5759 5753 5747 5741 5735 5730 5726 5722 5718 5715 5712 5709 5707 5705 5704 5703 5703 5704 5705 5706 5708 5711 5714 5718 5723 5729
5830 5828 5825 5822 5819 5815 5811 5807 5803 5798 5793 5788 5782 5776 5770 5764 5757 5751 5744 5738 5732 5726 5721 5717 5712 5708 5705 5702 5699 5696 5694 5692 5692 5692 5692 5693 5694 5696 5699 5702 5705 5710 5715
5824 5821 5819 5815 5812 5808 5804 5800 5795 5791 5785 5780 5774 5768 5762 5755 5749 5742 5736 5729 5723 5717 5712 5708 5703 5699 5695 5692 5689 5686 5684 5682 5680 5680 5681 5681 5682 5683 5686 5689 5692 5697 5702
5817 5814 5811 5808 5805 5801 5797 5792 5787 5782 5777 5772 5766 5760 5753 5747 5740 5733 5727 5720 5714 5709 5703 5699 5694 5690 5686 5682 5679 5676 5673 5671 5669 5669 5669 5669 5670 5671 5673 5676 5680 5684 5689
5810 5807 5804 5800 5797 5793 5788 5784 5779 5774 5768 5763 5757 5751 5744 5738 5731 5724 5718 5712 5706 5700 5694 5689 5685 5681 5676 5672 5668 5665 5663 5660 5659 5658 5657 5657 5658 5659 5660 5663 5667 5671 5676
5802 5799 5796 5792 5788 5784 5779 5774 5770 5764 5759 5754 5748 5742 5735 5729 5722 5715 5709 5703 5697 5691 5685 5680 5675 5671 5667 5662 5659 5655 5652 5650 5648 5647 5646 5645 5646 5647 5648 5651 5654 5658 5663
5794 5790 5787 5783 5778 5774 5770 5765 5760 5755 5750 5744 5738 5732 5726 5719 5713 5706 5699 5693 5688 5682 5677 5671 5667 5662 5658 5653 5649 5646 5643 5640 5638 5636 5635 5634 5634 5635 5636 5638 5642 5646 5651
5784 5781 5777 5773 5769 5765 5760 5755 5750 5745 5740 5734 5728 5723 5716 5709 5703 5697 5691 5684 5679 5673 5668 5663 5658 5653 5649 5644 5640 5636 5633 5630 5628 5626 5625 5624 5624 5624 5625 5627 5630 5634 5638
5775 5771 5767 5763 5759 5755 5750 5745 5740 5735 5729 5724 5718 5712 5706 5700 5693 5687 5681 5675 5670 5664 5659 5653 5649 5644 5640 5635 5631 5627 5624 5621 5618 5617 5615 5614 5613 5613 5614 5616 5618 5622 5627
5765 5761 5757 5753 5749 5744 5740 5734 5729 5724 5718 5713 5707 5701 5696 5690 5683 5677 5671 5666 5660 5655 5650 5645 5640 5636 5631 5627 5623 5619 5615 5612 5610 5607 5606 5604 5603 5602 5603 5605 5608 5611 5616
5754 5750 5746 5742 5738 5733 5728 5724 5718 5713 5708 5702 5696 5690 5685 5679 5673 5667 5661 5656 5651 5646 5641 5636 5631 5627 5623 5618 5614 5610 5607 5604 5601 5599 5597 5595 5594 5593 5594 5595 5598 5602 5606
5742 5738 5734 5730 5726 5721 5717 5712 5707 5702 5696 5690 5684 5679 5673 5668 5662 5657 5651 5646 5641 5636 5632 5627 5622 5618 5614 5610 5606 5602 5599 5596 5593 5590 5588 5587 5585 5585 5585 5587 5589 5592 5596
5730 5726 5722 5718 5714 5709 5704 5699 5694 5689 5684 5678 5672 5667 5662 5657 5651 5646 5641 5636 5631 5626 5622 5618 5613 5609 5605 5601 5598 5594 5591 5588 5585 5583 5580 5579 5578 5577 5578 5579 5581 5584 5588
5718 5714 5709 5705 5700 5696 5691 5686 5681 5675 5671 5666 5661 5655 5650 5645 5640 5635 5630 5626 5621 5617 5613 5609 5605 5601 5597 5593 5590 5586 5583 5580 5577 5575 5573 5571 5571 5570 5570 5571 5574 5577 5580
5704 5700 5696 5691 5687 5682 5677 5672 5667 5662 5657 5652 5647 5643 5638 5633 5629 5624 5620 5616 5612 5608 5603 5600 5596 5592 5589 5585 5582 5579 5576 5573 5570 5568 5566 5565 5564 5564 5564 5565 5567 5570 5574
5690 5686 5681 5677 5672 5667 5662 5657 5652 5647 5643 5638 5634 5629 5625 5621 5617 5613 5609 5606 5602 5598 5594 5591 5587 5584 5581 5577 5574 5571 5568 5566 5563 5561 5560 5558 5558 5558 5558 5559 5561 5563 5567
5675 5670 5665 5661 5656 5651 5646 5642 5637 5632 5628 5624 5620 5616 5612 5609 5605 5602 5599 5595 5592 5589 5586 5582 5579 5576 5573 5570 5567 5564 5561 5559 5557 5555 5554 5552 5552 5552 5553 5554 5555 5558 5561
5658 5654 5649 5644 5639 5635 5630 5626 5621 5617 5613 5610 5606 5603 5600 5597 5594 5591 5588 5586 5583 5580 5577 5574 5571 5568 5565 5562 5559 5557 5554 5552 5550 5549 5548 5547 5547 5547 5548 5549 5551 5553 5556
5642 5637 5632 5628 5623 5618 5614 5610 5606 5602 5599 5596 5593 5590 5588 5585 5583 5581 5579 5576 5574 5571 5568 5566 5563 5560 5558 5555 5553 5550 5548 5546 5544 5543 5543 5542 5542 5542 5543 5545 5546 5549 5552
5625 5620 5615 5610 5606 5602 5598 5594 5591 5587 5585 5582 5580 5578 5576 5574 5573 5571 5569 5567 5565 5563 5560 5558 5555 5553 5551 5549 5546 5544 5542 5540 5539 5538 5537 5537 5537 5538 5539 5540 5542 5544 5547
5608 5603 5598 5594 5590 5586 5582 5579 5577 5574 5572 5570 5568 5567 5565 5564 5563 5562 5560 5559 5557 5555 5553 5551 5549 5547 5545 5543 5541 5539 5536 5535 5534 5533 5532 5532 5533 5533 5535 5536 5538 5540 5543
Wind_Speed
9 10 11 12 14 15 17 19 21 23 25 27 28 29 30 30 31 32 32 32 32 32 32 32 33 33 34 35 35 36 37 37 36 37 39 39 39 39 40 41 41 42 43
10 11 13 14 15 17 18 21 23 25 26 28 30 31 32 33 33 34 34 34 34 34 34 34 34 34 34 35 35 36 37 38 38 38 40 41 41 41 41 41 42 43 42
12 13 15 16 17 19 21 23 25 26 28 30 31 33 34 34 35 35 35 35 35 35 35 35 35 34 34 34 35 35 36 37 38 38 39 41 42 43 43 43 43 43 44
14 16 17 18 20 21 23 25 27 29 30 32 33 34 35 36 37 37 37 36 36 36 36 35 34 34 33 33 34 34 35 35 36 37 37 40 41 43 44 44 44 45 45
17 18 19 21 22 24 25 27 29 30 32 33 35 36 37 38 38 38 38 37 37 36 36 35 34 33 33 33 33 33 34 34 35 36 37 38 39 41 43 44 45 45 46
19 20 21 23 25 26 28 29 30 32 33 35 36 38 39 40 40 40 39 39 37 36 35 34 33 33 33 33 33 33 33 33 34 35 36 37 38 40 41 42 44 45 46
21 22 24 25 27 28 29 31 32 33 34 36 38 39 40 41 41 41 40 39 37 36 35 34 33 33 33 33 32 32 33 33 33 34 35 36 38 40 41 42 43 44 45
23 24 25 27 28 29 31 32 34 35 36 37 39 40 42 42 42 41 40 39 37 36 35 34 33 33 33 33 32 32 33 33 33 33 34 35 37 39 41 42 43 43 44
26 26 27 29 30 32 33 34 35 37 38 39 40 42 42 43 42 41 40 38 37 36 35 34 34 33 33 33 32 32 32 33 33 33 33 34 36 38 40 41 42 43 44
27 28 29 31 32 34 35 35 37 38 39 40 41 42 43 43 42 41 40 38 37 36 35 35 34 34 33 33 32 32 32 32 33 33 33 34 35 37 39 40 41 43 43
29 30 32 33 34 35 36 37 39 39 40 41 42 42 43 43 42 41 39 38 36 36 35 35 34 34 33 32 32 31 31 31 31 32 32 33 34 36 38 39 40 42 43
31 32 33 35 36 37 38 39 40 40 41 42 42 42 43 43 42 40 39 38 36 36 35 34 34 33 32 32 31 30 30 29 30 30 30 31 32 34 36 38 39 40 42
32 33 35 36 37 38 40 41 41 41 42 43 43 43 43 43 42 40 39 38 36 35 35 34 33 32 31 31 30 30 29 28 28 28 29 29 31 32 34 36 38 39 41
35 36 37 38 39 40 41 42 42 42 43 43 44 44 43 43 42 41 39 38 36 35 35 34 32 32 31 31 30 29 28 28 27 27 28 28 30 31 33 34 35 38 40
37 38 39 40 40 41 42 43 43 44 44 44 44 44 44 43 42 42 40 38 36 35 35 33 32 32 31 30 29 28 28 27 27 26 27 27 28 29 30 32 33 35 38
39 40 41 41 42 43 44 44 44 45 45 45 45 45 44 43 43 42 40 38 37 36 34 33 32 31 31 30 28 28 27 27 26 26 26 26 26 26 28 30 32 33 35
41 41 42 43 44 45 46 46 46 46 46 47 46 45 44 44 43 41 40 38 37 36 34 33 32 31 30 29 28 27 27 26 25 25 24 24 24 25 26 28 29 31 33
43 43 44 45 46 47 47 47 47 48 48 47 47 46 45 44 43 41 39 38 37 36 34 33 32 31 30 28 27 27 26 25 24 24 23 22 23 23 25 26 28 30 32
44 45 46 47 48 48 49 49 50 49 49 49 47 47 45 44 42 41 39 37 36 35 34 32 31 30 29 28 27 26 25 24 23 22 22 21 21 21 22 24 26 27 29
47 48 48 49 50 50 51 51 50 50 50 49 49 47 45 44 42 40 38 36 35 34 33 32 31 29 28 27 26 25 23 22 22 21 20 20 20 20 20 22 24 26 28
49 50 51 51 51 52 52 52 51 51 50 50 48 47 45 42 40 38 36 35 33 32 31 30 29 28 27 26 25 24 23 22 21 20 19 19 19 19 20 20 22 25 27
51 52 52 53 53 53 53 53 52 52 50 49 47 44 42 39 36 35 34 33 32 31 30 29 28 27 26 25 24 23 21 20 20 19 18 17 18 18 19 19 21 23 25
53 54 54 54 54 54 54 53 52 50 49 47 44 41 39 36 34 32 31 31 30 30 29 28 26 25 24 23 22 21 20 19 18 17 17 16 16 16 17 18 20 22 24
55 55 54 54 54 53 52 51 49 47 46 43 41 38 36 34 32 30 30 29 29 28 27 25 24 23 22 21 21 20 19 18 17 16 15 15 14 15 16 18 19 21 23
54 54 53 53 52 50 49 48 45 43 41 39 36 34 32 30 28 27 27 27 26 25 24 22 21 21 20 19 18 18 17 16 15 14 14 14 13 14 15 17 18 20 22
52 52 51 50 49 48 46 43 41 38 36 34 32 30 28 27 26 25 26 26 25 23 22 21 20 20 19 17 17 16 15 14 13 13 12 13 13 14 14 15 17 19 21
Wind_Direction
338 336 334 334 333 332 332 332 332 331 331 331 331 329 327 326 323 320 318 315 311 306 303 298 293 288 283 279 275 272 268 264 260 257 256 254 252 249 247 244 242 241 239
328 326 325 325 326 327 326 327 328 328 329 330 330 328 326 325 323 322 319 316 312 308 304 299 295 290 286 282 278 274 270 266 261 257 254 253 251 250 248 245 242 240 239
318 319 319 319 320 322 323 324 325 325 326 327 328 328 326 325 323 322 320 317 314 310 305 301 296 292 288 284 281 277 273 269 264 259 255 253 251 250 248 246 243 240 238
311 313 314 315 316 318 320 321 321 322 323 324 325 326 325 324 323 321 320 318 315 311 307 303 298 294 290 287 283 280 275 271 266 261 257 254 251 249 247 245 243 240 238
308 310 311 312 313 315 317 318 319 320 321 322 323 324 324 324 323 322 320 318 315 312 308 304 300 295 292 289 286 282 278 273 267 263 259 255 251 249 246 244 241 240 238
307 308 308 309 310 312 315 317 318 319 320 321 321 322 324 324 323 322 320 318 315 312 308 305 301 297 294 291 288 284 280 276 270 265 260 255 251 249 247 245 242 239 238
304 305 306 307 309 311 313 315 316 317 319 320 321 322 323 323 323 322 320 318 315 312 309 306 303 299 296 293 290 286 282 277 272 267 262 257 253 250 248 246 243 240 237
301 303 305 306 307 309 311 312 313 315 317 319 321 322 322 322 322 321 320 318 315 312 308 306 304 301 297 294 291 287 283 279 274 270 264 259 256 251 248 246 244 240 237
299 301 303 304 305 307 309 311 312 314 316 318 319 321 321 321 321 320 319 317 315 312 308 306 304 302 299 296 292 289 285 280 275 271 266 261 257 253 249 246 243 241 237
296 298 300 303 305 308 310 311 312 313 314 316 318 320 320 320 320 319 318 316 314 311 309 306 304 303 301 299 295 290 285 281 277 273 268 262 258 254 251 247 244 240 237
295 297 299 302 304 307 309 310 311 312 313 314 316 318 319 319 319 318 317 315 313 311 309 307 305 304 303 301 297 293 287 283 279 274 269 264 259 255 251 248 245 241 237
296 297 299 302 304 305 307 309 310 310 312 313 315 316 318 318 318 317 316 315 313 311 309 307 305 304 304 302 299 295 289 285 283 278 272 267 261 256 252 249 245 241 237
296 298 300 302 304 305 307 309 309 310 311 312 313 315 316 316 317 316 315 314 313 311 310 307 306 305 304 303 300 296 291 287 285 281 275 270 265 259 254 249 245 241 237
296 297 299 301 303 305 306 308 308 309 310 311 312 314 314 315 315 315 315 313 312 311 310 308 306 305 305 304 300 297 292 290 287 283 278 273 269 262 255 250 245 241 236
296 297 299 300 302 304 306 307 307 308 309 310 311 312 313 313 313 313 313 312 311 310 309 307 306 305 305 304 301 297 294 291 289 285 281 277 271 263 254 249 244 240 235
295 296 298 299 301 303 304 305 306 307 307 309 309 310 311 311 312 312 311 310 309 309 308 306 305 305 304 303 300 298 294 292 290 287 282 278 271 263 255 248 242 238 234
295 296 298 299 300 302 303 304 304 305 306 308 308 308 309 309 310 310 309 308 308 307 307 305 304 303 303 302 300 298 295 292 291 288 283 278 271 263 255 248 241 237 233
295 295 297 298 300 300 301 302 303 304 305 306 306 306 306 307 307 307 307 306 305 305 305 305 303 302 301 301 300 298 295 292 291 289 283 277 271 263 254 246 240 236 232
294 295 296 297 298 299 299 300 301 302 303 303 304 304 304 304 304 304 304 304 303 303 303 303 303 302 302 301 299 298 295 292 292 289 283 276 271 263 253 245 238 233 230
293 294 295 296 297 298 298 298 299 299 300 301 301 301 301 301 301 301 302 301 301 301 302 302 301 302 302 301 299 298 295 292 291 288 282 275 269 261 252 244 236 230 227
293 293 294 295 296 296 297 297 297 297 298 298 299 299 298 298 298 298 298 299 299 299 300 300 300 300 300 300 299 297 294 292 289 286 281 274 266 258 251 243 233 227 225
293 294 294 295 295 295 296 296 296 296 296 296 296 296 296 296 295 294 294 296 296 296 297 297 298 298 299 299 300 298 293 290 288 284 279 273 266 256 248 239 231 227 224
294 294 294 294 294 294 294 294 294 294 294 294 294 293 293 293 293 291 292 292 294 296 297 297 295 295 296 298 299 298 294 290 286 280 275 270 263 252 243 236 231 227 222
293 294 294 293 293 293 293 293 292 292 292 292 291 290 289 289 289 288 288 291 294 295 296 296 294 294 294 296 297 297 294 290 286 281 273 267 261 251 241 234 227 224 220
293 294 294 293 293 292 292 292 291 290 290 289 288 287 286 285 284 285 286 288 292 293 295 295 294 294 293 294 296 297 296 290 285 279 271 263 257 250 241 233 227 224 220
293 293 293 293 292 292 291 290 289 288 287 286 285 284 282 281 280 282 285 287 289 290 292 291 292 293 293 292 295 297 296 291 284 277 269 259 252 247 240 233 230 225 220